COSMOS 2251 DEB, 38212

Orbit data source: Space-Track

COSMOS 2251 DEB, 38212 is space debris in LEO originally from a launch on Wed, 16 Jun 1993 UTC launched from the Plesetsk Missile And Space Complex (PKMTR). The debris from Iridium 33, an American commercial communications satellite, has been tracked extensively since its accidental collision with the defunct Russian satellite Cosmos 2251 in 2009. This event, occurring at high speed in low Earth orbit (LEO), generated thousands of pieces of space debris, significantly increasing the risk of further collisions. The Iridium 33 debris cloud has impacted space traffic management and orbital debris mitigation strategies, making it a subject of ongoing study in space situational awareness.

Loading next visibility...
Identifier
38212, 1993-036BTC
Orbit
LEO
Country
Flag of CISCIS
Related business
Manufacturer
Unknown
Mission
Spacecraft
Bus & Motor
Unknown
Mass
Unknown
Launch date (UTC)
1993-06-16 (33 years ago)
Launch vehicle
Unknown
Launch site
Plesetsk Missile And Space Complex (PKMTR)
Object type
Payload
Rocket body
Debris
Shape & HBR
Unknown shape, 0.1 m
Radar Cross Section
Small (<0.1 m²)

Expand to show TLE details & history
Last TLE update: 5 days ago

TLE from 5 days ago
0 COSMOS 2251 DEB
1 38212U 93036BTC 26231.64153837  .00001372  00000-0  17764-3 0  9999
2 38212  74.0503 305.9226 0092826 305.9877  53.2717 14.79004349850032
Epoch: 2026-08-19T15:23Z
TLE epoch observation values (Epoch: 2026-08-19T15:23:48.915Z)
Latitude
0.00001°
Longitude
106.97671°
Altitude
596.6 km
Speed
7.582 km/s
True Right ascension
20h 23m 41s
True Declination
0° 00' 00"
Sunlit
Object was in full shadow at epoch
Visualization orbit readout
Latitude
Unknown
Longitude
Unknown
Altitude
Unknown
Speed
Unknown
Apparent Right ascension
Unknown
Apparent Declination
Unknown
Sunlit
N/A
Visualization observer readout
Local Sidereal Time
10:22:30
Azimuth
Unknown
Elevation
Unknown
Doppler factor
Unknown
Orbital elements
Apogee altitude
695.098 km
Perigee altitude
564.99 km
Semi-major axis
7,008.181 km
Eccentricity
0.00928
Inclination
74.0503°
RAAN
305.9226°
Arg. of periapsis
305.9877°
True anomaly
54.13016°
Mean anomaly
53.2717°
Eccentric anomaly
53.70034°
Mean motion
3.69943 °/min
Orbital period
97.31 mins
BSTAR
0.00017764
Loading maneuver chart data...
Computing Atmospheric mass density...

Documentation

Showing up to 5 results
|